| time (UTC) | temp F | wind direction | speed knots | gust knots | rain 1hr in | rain 24hr in | rain mn in | humidity % | barometer mb |
| 20260904084119 | 50 | 224 | 0.0 | 0.0 | 0.00 | 0.01 | 0.00 | 80 | 1022.1 |
| 20260904083618 | 51 | 224 | 0.0 | 0.0 | 0.00 | 0.01 | 0.00 | 80 | 1022.1 |
| 20260904083119 | 51 | 224 | 0.0 | 0.0 | 0.00 | 0.01 | 0.00 | 79 | 1022.2 |
| 20260904082617 | 51 | 224 | 0.0 | 0.0 | 0.00 | 0.01 | 0.00 | 79 | 1022.1 |
| 20260904082117 | 51 | 224 | 0.0 | 0.0 | 0.00 | 0.01 | 0.00 | 78 | 1022.2 |
| 20260904081617 | 51 | 224 | 0.0 | 0.0 | 0.00 | 0.01 | 0.00 | 78 | 1022.2 |
| 20260904081118 | 51 | 224 | 0.0 | 0.0 | 0.00 | 0.01 | 0.00 | 77 | 1022.2 |
| 20260904080618 | 51 | 224 | 0.0 | 0.0 | 0.00 | 0.01 | 0.00 | 78 | 1022.2 |
| 20260904080339 | 51 | 224 | 0.0 | 0.0 | 0.00 | 0.01 | 0.00 | 78 | 1022.2 |
| 20260904075618 | 52 | 224 | 0.0 | 0.0 | 0.00 | 0.01 | 0.00 | 78 | 1022.2 |
| 20260904075118 | 52 | 224 | 0.0 | 0.0 | 0.00 | 0.01 | 0.00 | 78 | 1022.3 |
| 20260904074617 | 52 | 224 | 0.0 | 0.0 | 0.00 | 0.01 | 0.00 | 78 | 1022.2 |
| 20260904074343 | 52 | 224 | 0.0 | 0.0 | 0.00 | 0.01 | 0.00 | 78 | 1022.2 |
| 20260904073616 | 52 | 224 | 0.0 | 0.0 | 0.00 | 0.01 | 0.00 | 77 | 1022.2 |
| 20260904073117 | 52 | 224 | 0.0 | 0.0 | 0.00 | 0.01 | 0.00 | 78 | 1022.3 |
| 20260904072617 | 52 | 224 | 0.0 | 1.7 | 0.00 | 0.01 | 0.00 | 77 | 1022.2 |
| 20260904072118 | 52 | 224 | 0.0 | 1.7 | 0.00 | 0.01 | 0.00 | 77 | 1022.2 |
| 20260904071616 | 52 | 243 | 0.0 | 1.7 | 0.00 | 0.01 | 0.00 | 77 | 1022.1 |
| 20260904071117 | 52 | 235 | 0.0 | 0.9 | 0.00 | 0.01 | 0.00 | 78 | 1022.1 |
| 20260904070615 | 52 | 257 | 0.0 | 0.0 | 0.00 | 0.01 | 0.00 | 78 | 1022.1 |
| 20260904070340 | 52 | 257 | 0.0 | 0.0 | 0.00 | 0.01 | 0.00 | 78 | 1022.1 |
| 20260904065615 | 52 | 257 | 0.0 | 0.9 | 0.00 | 0.01 | 0.01 | 78 | 1022.2 |
| 20260904065115 | 52 | 257 | 0.0 | 0.9 | 0.00 | 0.01 | 0.01 | 78 | 1022.1 |
| 20260904064834 | 52 | 257 | 0.0 | 0.0 | 0.00 | 0.01 | 0.01 | 78 | 1022.0 |
| 20260904064122 | 52 | 257 | 0.0 | 1.7 | 0.00 | 0.01 | 0.01 | 79 | 1022.1 |
| 20260904063616 | 52 | 257 | 0.0 | 1.7 | 0.00 | 0.01 | 0.01 | 79 | 1022.1 |
| 20260904063336 | 52 | 244 | 0.0 | 0.0 | 0.00 | 0.01 | 0.01 | 79 | 1022.0 |
| 20260904062844 | 52 | 244 | 0.0 | 0.0 | 0.00 | 0.01 | 0.01 | 79 | 1022.0 |
| 20260904062342 | 52 | 244 | 0.0 | 0.0 | 0.00 | 0.01 | 0.01 | 79 | 1022.0 |
| 20260904061838 | 52 | 244 | 0.0 | 0.0 | 0.00 | 0.01 | 0.01 | 78 | 1022.0 |
| 20260904061116 | 52 | 243 | 0.0 | 0.0 | 0.00 | 0.01 | 0.01 | 78 | 1022.0 |
| 20260904060614 | 52 | 243 | 0.0 | 0.9 | 0.00 | 0.01 | 0.01 | 78 | 1021.9 |
| 20260904060115 | 52 | 243 | 0.0 | 0.9 | 0.00 | 0.01 | 0.01 | 79 | 1021.9 |
| 20260904055614 | 52 | 186 | 0.0 | 0.0 | 0.00 | 0.01 | 0.01 | 79 | 1022.0 |
| 20260904055343 | 52 | 186 | 0.0 | 0.0 | 0.00 | 0.01 | 0.01 | 78 | 1021.9 |
| 20260904054613 | 52 | 186 | 0.0 | 0.0 | 0.00 | 0.01 | 0.01 | 78 | 1022.1 |
| 20260904054605 | 52 | 186 | 0.0 | 0.0 | 0.00 | 0.01 | 0.01 | 78 | 1022.1 |
| 20260904053613 | 53 | 182 | 0.0 | 0.0 | 0.00 | 0.01 | 0.01 | 78 | 1022.1 |
| 20260904053115 | 53 | 182 | 0.0 | 0.0 | 0.00 | 0.01 | 0.01 | 78 | 1022.1 |
| 20260904052614 | 53 | 182 | 0.0 | 0.0 | 0.00 | 0.01 | 0.01 | 77 | 1022.1 |
| 20260904052113 | 53 | 182 | 0.0 | 0.0 | 0.00 | 0.01 | 0.01 | 77 | 1022.0 |
| 20260904051614 | 53 | 182 | 0.0 | 0.0 | 0.00 | 0.01 | 0.01 | 76 | 1022.0 |
| 20260904051112 | 53 | 251 | 0.0 | 1.7 | 0.00 | 0.01 | 0.01 | 76 | 1022.1 |
| 20260904050614 | 53 | 254 | 0.0 | 1.7 | 0.00 | 0.01 | 0.01 | 76 | 1022.1 |
| 20260904050114 | 54 | 254 | 0.0 | 0.0 | 0.00 | 0.01 | 0.01 | 76 | 1022.2 |
| 20260904045613 | 54 | 309 | 0.0 | 0.0 | 0.00 | 0.01 | 0.01 | 75 | 1022.1 |
| 20260904045113 | 54 | 309 | 0.0 | 0.9 | 0.00 | 0.01 | 0.01 | 74 | 1022.1 |
| 20260904044613 | 55 | 309 | 0.0 | 0.9 | 0.00 | 0.01 | 0.01 | 73 | 1022.1 |
| 20260904044239 | 55 | 248 | 0.9 | 2.6 | 0.00 | 0.01 | 0.01 | 73 | 1022.2 |
| 20260904044142 | 55 | 303 | 0.9 | 1.7 | 0.00 | 0.01 | 0.01 | 72 | 1022.1 |
| 20260904043924 | 55 | 250 | 0.0 | 2.6 | 0.00 | 0.01 | 0.01 | 72 | 1022.2 |
| 20260904043055 | 54 | 248 | 0.0 | 1.7 | 0.00 | 0.01 | 0.01 | 73 | 1022.2 |
| 20260904042114 | 54 | 238 | 0.0 | 0.0 | 0.00 | 0.01 | 0.01 | 74 | 1022.2 |
| 20260904041838 | 54 | 238 | 0.0 | 1.7 | 0.00 | 0.01 | 0.01 | 73 | 1022.2 |
| 20260904041114 | 54 | 238 | 0.0 | 1.7 | 0.00 | 0.01 | 0.01 | 74 | 1022.2 |
| 20260904040834 | 54 | 251 | 0.0 | 0.0 | 0.00 | 0.01 | 0.01 | 74 | 1022.1 |
| 20260904040340 | 54 | 251 | 0.0 | 0.0 | 0.00 | 0.01 | 0.01 | 74 | 1022.0 |
| 20260904035615 | 54 | 240 | 0.0 | 0.0 | 0.00 | 0.01 | 0.01 | 74 | 1022.1 |
| 20260904035111 | 54 | 240 | 0.0 | 0.0 | 0.00 | 0.01 | 0.01 | 74 | 1022.0 |
| 20260904034612 | 55 | 240 | 0.0 | 0.0 | 0.00 | 0.01 | 0.01 | 75 | 1022.0 |
| 20260904034111 | 55 | 248 | 0.0 | 0.0 | 0.00 | 0.01 | 0.01 | 74 | 1022.0 |
| 20260904033612 | 55 | 248 | 0.0 | 0.0 | 0.00 | 0.01 | 0.01 | 73 | 1021.9 |
| 20260904033334 | 55 | 248 | 0.0 | 0.0 | 0.00 | 0.01 | 0.01 | 73 | 1021.9 |
| 20260904032612 | 55 | 248 | 0.0 | 0.0 | 0.00 | 0.01 | 0.01 | 73 | 1021.9 |
| 20260904032111 | 55 | 248 | 0.0 | 0.0 | 0.00 | 0.01 | 0.01 | 73 | 1021.9 |
| 20260904031611 | 55 | 257 | 0.0 | 0.0 | 0.00 | 0.01 | 0.01 | 73 | 1021.9 |
| 20260904031111 | 55 | 340 | 0.0 | 0.0 | 0.00 | 0.01 | 0.01 | 73 | 1021.9 |
| 20260904030610 | 55 | 340 | 0.0 | 0.0 | 0.00 | 0.01 | 0.01 | 73 | 1021.8 |
| 20260904030109 | 55 | 340 | 0.0 | 0.0 | 0.00 | 0.01 | 0.01 | 73 | 1021.8 |
| 20260904025610 | 55 | 272 | 0.0 | 0.0 | 0.00 | 0.01 | 0.01 | 72 | 1021.8 |
| 20260904025333 | 55 | 235 | 0.0 | 0.0 | 0.00 | 0.01 | 0.01 | 72 | 1021.8 |
| 20260904024610 | 55 | 235 | 0.0 | 0.0 | 0.00 | 0.01 | 0.01 | 72 | 1021.8 |
| 20260904024109 | 55 | 216 | 0.0 | 0.0 | 0.00 | 0.01 | 0.01 | 71 | 1021.8 |
| 20260904023610 | 56 | 214 | 0.0 | 0.0 | 0.00 | 0.01 | 0.01 | 70 | 1021.8 |
| 20260904023109 | 56 | 358 | 0.0 | 0.0 | 0.00 | 0.01 | 0.01 | 68 | 1021.7 |
| 20260904022831 | 56 | 358 | 0.0 | 0.0 | 0.00 | 0.01 | 0.01 | 66 | 1021.6 |
| 20260904022108 | 57 | 13 | 0.0 | 0.0 | 0.00 | 0.01 | 0.01 | 64 | 1021.5 |
| 20260904021609 | 57 | 307 | 0.0 | 0.0 | 0.00 | 0.01 | 0.01 | 64 | 1021.5 |
| 20260904021107 | 57 | 334 | 0.0 | 0.0 | 0.00 | 0.01 | 0.01 | 63 | 1021.5 |
| 20260904020609 | 57 | 314 | 0.0 | 0.0 | 0.00 | 0.01 | 0.01 | 62 | 1021.5 |
| 20260904020107 | 58 | 314 | 0.0 | 2.6 | 0.00 | 0.01 | 0.01 | 61 | 1021.4 |
| 20260904015608 | 58 | 324 | 0.0 | 2.6 | 0.00 | 0.01 | 0.01 | 61 | 1021.5 |
| 20260904015107 | 58 | 292 | 0.9 | 2.6 | 0.00 | 0.01 | 0.01 | 60 | 1021.4 |
| 20260904014607 | 58 | 313 | 0.9 | 3.5 | 0.00 | 0.01 | 0.01 | 60 | 1021.3 |
| 20260904014115 | 58 | 305 | 0.9 | 3.5 | 0.00 | 0.01 | 0.01 | 60 | 1021.4 |
| 20260904013608 | 58 | 300 | 0.9 | 2.6 | 0.00 | 0.01 | 0.01 | 60 | 1021.4 |
| 20260904013109 | 58 | 299 | 0.0 | 3.5 | 0.00 | 0.01 | 0.01 | 61 | 1021.5 |
| 20260904012608 | 58 | 11 | 0.9 | 3.5 | 0.00 | 0.01 | 0.01 | 60 | 1021.4 |
| 20260904012109 | 58 | 296 | 0.9 | 4.3 | 0.00 | 0.01 | 0.01 | 60 | 1021.5 |
| 20260904011836 | 58 | 319 | 1.7 | 8.7 | 0.00 | 0.01 | 0.01 | 60 | 1021.5 |
| 20260904011107 | 58 | 219 | 1.7 | 8.7 | 0.00 | 0.01 | 0.01 | 60 | 1021.4 |
| 20260904010608 | 58 | 302 | 1.7 | 4.3 | 0.00 | 0.01 | 0.01 | 60 | 1021.4 |
| 20260904010106 | 58 | 312 | 1.7 | 3.5 | 0.00 | 0.01 | 0.01 | 60 | 1021.4 |
| 20260904005608 | 58 | 316 | 0.9 | 5.2 | 0.00 | 0.01 | 0.01 | 60 | 1021.4 |
| 20260904005108 | 58 | 293 | 0.9 | 5.2 | 0.00 | 0.01 | 0.01 | 60 | 1021.4 |
| 20260904004835 | 58 | 324 | 0.9 | 2.6 | 0.00 | 0.01 | 0.01 | 59 | 1021.4 |
| 20260904004107 | 58 | 306 | 0.9 | 3.5 | 0.00 | 0.01 | 0.01 | 60 | 1021.4 |
| 20260904003830 | 58 | 293 | 1.7 | 3.5 | 0.00 | 0.01 | 0.01 | 61 | 1021.4 |
| 20260904003106 | 58 | 300 | 1.7 | 3.5 | 0.00 | 0.01 | 0.01 | 62 | 1021.4 |
| 20260904002607 | 58 | 298 | 0.9 | 3.5 | 0.00 | 0.01 | 0.01 | 63 | 1021.4 |
| 20260904002107 | 58 | 300 | 1.7 | 3.5 | 0.00 | 0.01 | 0.01 | 63 | 1021.4 |
| 20260904001606 | 59 | 320 | 0.9 | 2.6 | 0.00 | 0.01 | 0.01 | 62 | 1021.4 |
| 20260904001109 | 59 | 312 | 0.9 | 2.6 | 0.00 | 0.01 | 0.01 | 62 | 1021.4 |
| 20260904001100 | 59 | 306 | 0.9 | 2.6 | 0.00 | 0.01 | 0.01 | 61 | 1021.4 |
| 20260904000108 | 60 | 312 | 0.9 | 2.6 | 0.00 | 0.01 | 0.01 | 61 | 1021.4 |
| 20260903235610 | 60 | 300 | 0.9 | 2.6 | 0.00 | 0.01 | 0.01 | 61 | 1021.4 |
| 20260903235105 | 60 | 329 | 0.9 | 2.6 | 0.00 | 0.01 | 0.01 | 61 | 1021.4 |
| 20260903234608 | 60 | 303 | 1.7 | 2.6 | 0.00 | 0.01 | 0.01 | 61 | 1021.5 |
| 20260903234106 | 60 | 351 | 1.7 | 5.2 | 0.00 | 0.01 | 0.01 | 58 | 1021.4 |
| 20260903233606 | 60 | 324 | 1.7 | 5.2 | 0.00 | 0.01 | 0.01 | 57 | 1021.4 |
| 20260903233106 | 60 | 331 | 1.7 | 5.2 | 0.00 | 0.01 | 0.01 | 56 | 1021.4 |
| 20260903232606 | 60 | 290 | 0.9 | 5.2 | 0.00 | 0.01 | 0.01 | 57 | 1021.5 |
| 20260903232105 | 60 | 298 | 1.7 | 5.2 | 0.00 | 0.01 | 0.01 | 56 | 1021.4 |
| 20260903231606 | 60 | 355 | 1.7 | 5.2 | 0.00 | 0.01 | 0.01 | 56 | 1021.5 |
| 20260903231105 | 60 | 309 | 1.7 | 5.2 | 0.00 | 0.01 | 0.01 | 55 | 1021.5 |
| 20260903230610 | 60 | 3 | 0.9 | 4.3 | 0.00 | 0.01 | 0.01 | 57 | 1021.5 |
| 20260903230105 | 60 | 309 | 1.7 | 5.2 | 0.00 | 0.01 | 0.01 | 56 | 1021.6 |
| 20260903225601 | 60 | 331 | 1.7 | 5.2 | 0.00 | 0.01 | 0.01 | 56 | 1021.8 |
| 20260903225105 | 60 | 331 | 1.7 | 4.3 | 0.00 | 0.01 | 0.01 | 57 | 1021.6 |
| 20260903224604 | 60 | 343 | 1.7 | 4.3 | 0.00 | 0.01 | 0.01 | 58 | 1021.6 |
| 20260903224329 | 60 | 290 | 1.7 | 4.3 | 0.00 | 0.01 | 0.01 | 58 | 1021.6 |
| 20260903223604 | 60 | 306 | 1.7 | 4.3 | 0.00 | 0.01 | 0.01 | 57 | 1021.7 |
| 20260903223106 | 60 | 296 | 2.6 | 4.3 | 0.00 | 0.01 | 0.01 | 58 | 1021.6 |
| 20260903222604 | 61 | 300 | 1.7 | 4.3 | 0.00 | 0.01 | 0.01 | 56 | 1021.6 |
| 20260903222104 | 61 | 334 | 1.7 | 4.3 | 0.00 | 0.01 | 0.01 | 56 | 1021.5 |
| 20260903221601 | 61 | 319 | 1.7 | 4.3 | 0.00 | 0.01 | 0.01 | 56 | 1021.5 |
| 20260903221322 | 60 | 343 | 0.9 | 3.5 | 0.00 | 0.01 | 0.01 | 59 | 1021.4 |
| 20260903220604 | 60 | 281 | 0.9 | 5.2 | 0.00 | 0.01 | 0.01 | 60 | 1021.4 |
| 20260903215604 | 62 | 293 | 1.7 | 4.3 | 0.00 | 0.01 | 0.01 | 55 | 1021.4 |
| 20260903215549 | 63 | 48 | 3.5 | 7.8 | 0.00 | 0.01 | 0.01 | 51 | 1021.4 |
| 20260903214603 | 66 | 47 | 4.3 | 8.7 | 0.00 | 0.01 | 0.01 | 45 | 1021.4 |
| 20260903214105 | 66 | 107 | 3.5 | 8.7 | 0.00 | 0.01 | 0.01 | 41 | 1021.0 |
| 20260903213100 | 66 | 99 | 3.5 | 12.2 | 0.00 | 0.01 | 0.01 | 41 | 1021.1 |
| 20260903212559 | 66 | 130 | 4.3 | 12.2 | 0.00 | 0.01 | 0.01 | 42 | 1021.0 |
| 20260903212326 | 66 | 102 | 3.5 | 11.3 | 0.00 | 0.01 | 0.01 | 43 | 1021.0 |
| 20260903211602 | 66 | 93 | 4.3 | 13.0 | 0.00 | 0.01 | 0.01 | 43 | 1021.0 |
| 20260903211103 | 65 | 107 | 5.2 | 13.9 | 0.00 | 0.01 | 0.01 | 43 | 1020.9 |
| 20260903210602 | 66 | 99 | 6.1 | 13.9 | 0.00 | 0.01 | 0.01 | 43 | 1020.9 |
| 20260903205601 | 65 | 128 | 8.7 | 14.8 | 0.00 | 0.01 | 0.01 | 44 | 1020.8 |
| 20260903205101 | 65 | 147 | 7.0 | 12.2 | 0.00 | 0.01 | 0.01 | 43 | 1020.7 |
| 20260903204602 | 65 | 58 | 7.0 | 11.3 | 0.00 | 0.01 | 0.01 | 44 | 1020.8 |
| 20260903204540 | 65 | 121 | 5.2 | 11.3 | 0.00 | 0.01 | 0.01 | 45 | 1020.7 |
| 20260903203603 | 65 | 96 | 7.0 | 13.9 | 0.00 | 0.01 | 0.01 | 45 | 1020.7 |
| 20260903203100 | 65 | 100 | 7.0 | 13.9 | 0.00 | 0.01 | 0.01 | 45 | 1020.6 |
| 20260903202601 | 65 | 133 | 6.1 | 13.9 | 0.00 | 0.01 | 0.01 | 46 | 1020.6 |
| 20260903202320 | 66 | 147 | 7.0 | 13.9 | 0.00 | 0.01 | 0.01 | 44 | 1020.7 |
| 20260903201559 | 66 | 130 | 7.0 | 11.3 | 0.00 | 0.01 | 0.01 | 44 | 1020.7 |
| 20260903201100 | 67 | 118 | 6.1 | 15.6 | 0.00 | 0.01 | 0.01 | 44 | 1020.7 |
| 20260903200559 | 67 | 140 | 7.8 | 15.6 | 0.00 | 0.01 | 0.01 | 43 | 1020.6 |
| 20260903200100 | 67 | 62 | 4.3 | 9.6 | 0.00 | 0.01 | 0.01 | 44 | 1020.7 |
| 20260903195826 | 65 | 96 | 1.7 | 10.4 | 0.00 | 0.01 | 0.01 | 46 | 1020.8 |
| 20260903195102 | 66 | 114 | 5.2 | 10.4 | 0.00 | 0.01 | 0.01 | 43 | 1020.8 |
| 20260903194600 | 66 | 131 | 4.3 | 13.0 | 0.00 | 0.01 | 0.01 | 43 | 1020.8 |
| 20260903194319 | 67 | 141 | 7.0 | 13.0 | 0.00 | 0.01 | 0.01 | 42 | 1020.8 |
| 20260903193600 | 67 | 52 | 7.0 | 13.0 | 0.00 | 0.01 | 0.01 | 45 | 1020.7 |
| 20260903193100 | 67 | 140 | 5.2 | 10.4 | 0.00 | 0.01 | 0.01 | 45 | 1020.7 |
| 20260903192821 | 66 | 59 | 3.5 | 10.4 | 0.00 | 0.01 | 0.01 | 45 | 1020.7 |
| 20260903192321 | 66 | 114 | 6.1 | 10.4 | 0.00 | 0.01 | 0.01 | 47 | 1020.6 |
| 20260903191823 | 66 | 118 | 5.2 | 13.9 | 0.00 | 0.01 | 0.01 | 47 | 1020.5 |
| 20260903191101 | 66 | 133 | 4.3 | 13.9 | 0.00 | 0.01 | 0.01 | 46 | 1020.6 |
| 20260903190601 | 66 | 59 | 4.3 | 11.3 | 0.00 | 0.01 | 0.01 | 46 | 1020.6 |
| 20260903190105 | 66 | 61 | 5.2 | 11.3 | 0.00 | 0.01 | 0.01 | 47 | 1020.6 |
| 20260903185559 | 66 | 54 | 5.2 | 11.3 | 0.00 | 0.01 | 0.01 | 40 | 1020.6 |
| 20260903185100 | 66 | 120 | 5.2 | 11.3 | 0.00 | 0.01 | 0.01 | 40 | 1020.6 |
| 20260903184559 | 66 | 69 | 4.3 | 9.6 | 0.00 | 0.01 | 0.01 | 42 | 1020.6 |
| 20260903184059 | 66 | 104 | 5.2 | 9.6 | 0.00 | 0.01 | 0.01 | 42 | 1020.6 |
| 20260903183819 | 65 | 102 | 2.6 | 7.8 | 0.00 | 0.01 | 0.01 | 45 | 1020.7 |
| 20260903183056 | 65 | 76 | 4.3 | 6.1 | 0.00 | 0.01 | 0.01 | 45 | 1020.7 |
| 20260903182813 | 65 | 155 | 1.7 | 6.1 | 0.00 | 0.01 | 0.01 | 43 | 1020.7 |
| 20260903182318 | 65 | 128 | 3.5 | 8.7 | 0.00 | 0.01 | 0.01 | 46 | 1020.7 |
| 20260903181558 | 65 | 55 | 3.5 | 8.7 | 0.00 | 0.01 | 0.01 | 47 | 1020.7 |
| 20260903181058 | 65 | 107 | 3.5 | 7.8 | 0.00 | 0.01 | 0.01 | 46 | 1020.7 |
| 20260903180604 | 64 | 134 | 1.7 | 6.1 | 0.00 | 0.01 | 0.01 | 47 | 1020.8 |
| 20260903180318 | 64 | 207 | 1.7 | 6.1 | 0.00 | 0.01 | 0.01 | 46 | 1020.7 |
| 20260903175558 | 64 | 75 | 1.7 | 5.2 | 0.00 | 0.01 | 0.01 | 45 | 1020.7 |
| 20260903175057 | 64 | 89 | 1.7 | 4.3 | 0.00 | 0.01 | 0.01 | 46 | 1020.7 |
| 20260903174559 | 63 | 72 | 0.9 | 4.3 | 0.00 | 0.01 | 0.01 | 46 | 1020.8 |
| 20260903174057 | 64 | 125 | 1.7 | 3.5 | 0.00 | 0.01 | 0.01 | 44 | 1020.7 |
| 20260903173559 | 64 | 52 | 1.7 | 3.5 | 0.00 | 0.01 | 0.01 | 46 | 1020.7 |
| 20260903173057 | 63 | 79 | 0.9 | 3.5 | 0.00 | 0.01 | 0.01 | 43 | 1020.8 |
| 20260903172557 | 63 | 13 | 0.0 | 3.5 | 0.00 | 0.01 | 0.01 | 44 | 1020.6 |
| 20260903172057 | 63 | 66 | 1.7 | 3.5 | 0.00 | 0.01 | 0.01 | 47 | 1020.7 |
| 20260903171559 | 64 | 39 | 0.9 | 2.6 | 0.00 | 0.01 | 0.01 | 45 | 1020.6 |
| 20260903171058 | 63 | 214 | 0.0 | 2.6 | 0.00 | 0.01 | 0.01 | 48 | 1020.6 |
| 20260903170602 | 62 | 355 | 1.7 | 2.6 | 0.00 | 0.01 | 0.01 | 53 | 1020.6 |
| 20260903170055 | 62 | 62 | 0.9 | 6.1 | 0.00 | 0.01 | 0.01 | 53 | 1020.6 |
| 20260903165556 | 62 | 51 | 0.9 | 6.1 | 0.00 | 0.01 | 0.01 | 55 | 1020.5 |
| 20260903165056 | 61 | 350 | 0.0 | 2.6 | 0.00 | 0.01 | 0.01 | 57 | 1020.6 |
| 20260903164557 | 61 | 314 | 0.9 | 5.2 | 0.00 | 0.01 | 0.01 | 59 | 1020.5 |
| 20260903164056 | 60 | 233 | 0.9 | 5.2 | 0.00 | 0.01 | 0.01 | 57 | 1020.5 |
| 20260903163556 | 60 | 269 | 0.0 | 2.6 | 0.00 | 0.01 | 0.01 | 61 | 1020.5 |
| 20260903163055 | 59 | 11 | 1.7 | 3.5 | 0.00 | 0.01 | 0.01 | 62 | 1020.5 |
| 20260903162827 | 59 | 66 | 0.9 | 3.5 | 0.00 | 0.01 | 0.01 | 62 | 1020.5 |
| 20260903162056 | 59 | 345 | 0.9 | 2.6 | 0.00 | 0.01 | 0.01 | 69 | 1020.5 |
| 20260903161559 | 58 | 228 | 0.0 | 1.7 | 0.00 | 0.01 | 0.01 | 72 | 1020.6 |
| 20260903161100 | 58 | 340 | 0.9 | 1.7 | 0.00 | 0.01 | 0.01 | 72 | 1020.5 |
| 20260903160825 | 58 | 47 | 0.0 | 0.9 | 0.00 | 0.01 | 0.01 | 74 | 1020.5 |
| 20260903160534 | 58 | 110 | 0.0 | 0.9 | 0.00 | 0.01 | 0.01 | 80 | 1020.5 |
| 20260903155555 | 57 | 47 | 0.0 | 1.7 | 0.00 | 0.01 | 0.01 | 83 | 1020.6 |
| 20260903155055 | 56 | 155 | 0.0 | 1.7 | 0.00 | 0.01 | 0.01 | 85 | 1020.5 |
| 20260903154556 | 56 | 109 | 0.0 | 1.7 | 0.00 | 0.01 | 0.01 | 87 | 1020.6 |
| 20260903154055 | 55 | 109 | 0.0 | 1.7 | 0.00 | 0.01 | 0.01 | 88 | 1020.7 |
| 20260903153556 | 54 | 75 | 0.0 | 1.7 | 0.00 | 0.01 | 0.01 | 91 | 1020.6 |
| 20260903153053 | 53 | 85 | 0.0 | 1.7 | 0.00 | 0.01 | 0.01 | 91 | 1020.7 |
| 20260903152555 | 53 | 131 | 0.0 | 0.9 | 0.00 | 0.01 | 0.01 | 92 | 1020.8 |
| 20260903152322 | 52 | 131 | 0.0 | 0.9 | 0.00 | 0.01 | 0.01 | 92 | 1020.7 |
| 20260903151554 | 52 | 144 | 0.0 | 0.9 | 0.00 | 0.01 | 0.01 | 92 | 1020.6 |
| 20260903151054 | 52 | 125 | 0.0 | 0.9 | 0.00 | 0.01 | 0.01 | 92 | 1020.6 |
| 20260903150557 | 51 | 159 | 0.0 | 0.0 | 0.00 | 0.01 | 0.01 | 92 | 1020.6 |
| 20260903150053 | 51 | 159 | 0.0 | 0.0 | 0.00 | 0.01 | 0.01 | 93 | 1020.5 |
| 20260903145553 | 51 | 159 | 0.0 | 0.0 | 0.00 | 0.01 | 0.01 | 92 | 1020.6 |
| 20260903145054 | 51 | 159 | 0.0 | 0.0 | 0.00 | 0.01 | 0.01 | 92 | 1020.6 |
| 20260903144555 | 51 | 159 | 0.0 | 0.0 | 0.00 | 0.01 | 0.01 | 92 | 1020.5 |
| 20260903144054 | 50 | 159 | 0.0 | 0.0 | 0.00 | 0.01 | 0.01 | 92 | 1020.5 |
| 20260903143553 | 50 | 159 | 0.0 | 0.0 | 0.00 | 0.01 | 0.01 | 92 | 1020.4 |
| 20260903143054 | 50 | 159 | 0.0 | 0.0 | 0.00 | 0.01 | 0.01 | 92 | 1020.4 |
| 20260903142814 | 50 | 159 | 0.0 | 0.9 | 0.00 | 0.01 | 0.01 | 92 | 1020.3 |
| 20260903142053 | 50 | 159 | 0.0 | 0.9 | 0.00 | 0.01 | 0.01 | 92 | 1020.3 |
| 20260903141553 | 50 | 182 | 0.0 | 0.0 | 0.00 | 0.01 | 0.01 | 91 | 1020.3 |
| 20260903141054 | 51 | 182 | 0.0 | 0.0 | 0.00 | 0.01 | 0.01 | 91 | 1020.2 |
| 20260903140556 | 51 | 182 | 0.0 | 0.0 | 0.00 | 0.01 | 0.01 | 91 | 1020.2 |
| 20260903140317 | 51 | 182 | 0.0 | 0.0 | 0.00 | 0.01 | 0.01 | 92 | 1020.2 |
| 20260903135815 | 51 | 196 | 0.0 | 0.0 | 0.00 | 0.01 | 0.01 | 92 | 1020.1 |
| 20260903135052 | 51 | 196 | 0.0 | 0.0 | 0.00 | 0.01 | 0.01 | 92 | 1020.1 |
| 20260903134552 | 51 | 196 | 0.0 | 0.0 | 0.00 | 0.01 | 0.01 | 91 | 1019.9 |
| 20260903134544 | 51 | 196 | 0.0 | 0.0 | 0.00 | 0.01 | 0.01 | 91 | 1019.9 |
| 20260903133554 | 51 | 196 | 0.0 | 0.0 | 0.00 | 0.01 | 0.01 | 91 | 1019.9 |
| 20260903133051 | 51 | 196 | 0.0 | 0.0 | 0.00 | 0.01 | 0.01 | 91 | 1019.8 |
| 20260903132552 | 51 | 196 | 0.0 | 0.0 | 0.00 | 0.01 | 0.01 | 90 | 1019.8 |
| 20260903132051 | 51 | 196 | 0.0 | 0.0 | 0.00 | 0.01 | 0.01 | 90 | 1019.8 |
| 20260903131558 | 51 | 196 | 0.0 | 0.0 | 0.00 | 0.01 | 0.01 | 90 | 1019.8 |
| 20260903131053 | 51 | 196 | 0.0 | 0.0 | 0.00 | 0.01 | 0.01 | 90 | 1019.8 |
| 20260903130551 | 51 | 196 | 0.0 | 0.0 | 0.00 | 0.01 | 0.01 | 91 | 1019.8 |
| 20260903130051 | 51 | 196 | 0.0 | 0.0 | 0.00 | 0.01 | 0.01 | 91 | 1019.8 |
| 20260903125551 | 52 | 196 | 0.0 | 0.0 | 0.00 | 0.01 | 0.01 | 91 | 1019.6 |
| 20260903125312 | 51 | 196 | 0.0 | 0.0 | 0.00 | 0.01 | 0.01 | 91 | 1019.5 |
| 20260903124551 | 52 | 196 | 0.0 | 0.0 | 0.00 | 0.01 | 0.01 | 91 | 1019.5 |
| 20260903124052 | 52 | 196 | 0.0 | 0.0 | 0.00 | 0.01 | 0.01 | 91 | 1019.4 |
| 20260903123552 | 51 | 196 | 0.0 | 0.0 | 0.00 | 0.01 | 0.01 | 90 | 1019.5 |
| 20260903123544 | 51 | 196 | 0.0 | 0.0 | 0.00 | 0.01 | 0.01 | 90 | 1019.5 |
| 20260903122551 | 51 | 196 | 0.0 | 0.0 | 0.00 | 0.01 | 0.01 | 90 | 1019.4 |
| 20260903122050 | 51 | 196 | 0.0 | 0.0 | 0.00 | 0.01 | 0.01 | 91 | 1019.3 |
| 20260903121551 | 51 | 196 | 0.0 | 0.0 | 0.00 | 0.01 | 0.01 | 91 | 1019.4 |
| 20260903121050 | 51 | 196 | 0.0 | 0.0 | 0.00 | 0.01 | 0.01 | 91 | 1019.3 |
| 20260903120757 | 51 | 196 | 0.0 | 0.0 | 0.00 | 0.01 | 0.01 | 90 | 1019.4 |
| 20260903120644 | 51 | 196 | 0.0 | 0.0 | 0.00 | 0.01 | 0.01 | 91 | 1019.5 |
| 20260903120043 | 51 | 196 | 0.0 | 0.0 | 0.00 | 0.01 | 0.01 | 91 | 1019.5 |
| 20260903115050 | 51 | 197 | 0.0 | 0.0 | 0.00 | 0.01 | 0.01 | 91 | 1019.4 |
| 20260903114551 | 51 | 197 | 0.0 | 0.0 | 0.00 | 0.01 | 0.01 | 91 | 1019.3 |
| 20260903114049 | 51 | 196 | 0.0 | 0.0 | 0.00 | 0.01 | 0.01 | 91 | 1019.3 |
| 20260903113550 | 51 | 219 | 0.0 | 0.0 | 0.00 | 0.01 | 0.01 | 91 | 1019.3 |
| 20260903113050 | 52 | 227 | 0.0 | 0.0 | 0.00 | 0.01 | 0.01 | 91 | 1019.3 |
| 20260903112549 | 52 | 227 | 0.0 | 0.0 | 0.00 | 0.01 | 0.01 | 91 | 1019.3 |
| 20260903112049 | 52 | 227 | 0.0 | 0.0 | 0.00 | 0.01 | 0.01 | 90 | 1019.3 |
| 20260903111548 | 52 | 227 | 0.0 | 0.0 | 0.00 | 0.01 | 0.01 | 90 | 1019.2 |
| 20260903111050 | 52 | 227 | 0.0 | 0.0 | 0.00 | 0.01 | 0.01 | 89 | 1019.1 |
| 20260903110758 | 52 | 227 | 0.0 | 1.7 | 0.00 | 0.01 | 0.01 | 90 | 1019.1 |
| 20260903110648 | 53 | 227 | 0.0 | 1.7 | 0.00 | 0.01 | 0.01 | 89 | 1019.0 |
| 20260903105549 | 52 | 251 | 0.0 | 1.7 | 0.00 | 0.01 | 0.01 | 91 | 1019.0 |
| 20260903105048 | 52 | 245 | 0.0 | 1.7 | 0.00 | 0.01 | 0.01 | 91 | 1018.9 |
| 20260903104548 | 52 | 254 | 0.0 | 1.7 | 0.00 | 0.01 | 0.01 | 91 | 1018.7 |
| 20260903104048 | 52 | 166 | 0.0 | 0.0 | 0.00 | 0.01 | 0.01 | 91 | 1018.9 |
| 20260903103549 | 53 | 168 | 0.0 | 0.0 | 0.01 | 0.01 | 0.01 | 90 | 1019.0 |
| 20260903103049 | 53 | 168 | 0.0 | 0.9 | 0.01 | 0.01 | 0.01 | 90 | 1019.0 |
| 20260903102549 | 53 | 168 | 0.0 | 0.9 | 0.01 | 0.01 | 0.01 | 90 | 1019.2 |
| 20260903102047 | 53 | 166 | 0.0 | 0.0 | 0.01 | 0.01 | 0.01 | 90 | 1019.2 |
| 20260903101810 | 53 | 168 | 0.0 | 0.0 | 0.01 | 0.01 | 0.01 | 90 | 1019.1 |
| 20260903101047 | 53 | 168 | 0.0 | 0.0 | 0.01 | 0.01 | 0.01 | 90 | 1019.1 |
| 20260903100548 | 53 | 168 | 0.0 | 0.0 | 0.01 | 0.01 | 0.01 | 90 | 1019.0 |
| 20260903100314 | 53 | 168 | 0.0 | 0.0 | 0.01 | 0.01 | 0.01 | 89 | 1019.0 |
| 20260903095547 | 53 | 166 | 0.0 | 0.0 | 0.01 | 0.01 | 0.01 | 88 | 1019.1 |
| 20260903095048 | 54 | 165 | 0.0 | 0.0 | 0.01 | 0.01 | 0.01 | 87 | 1019.1 |
| 20260903094548 | 54 | 165 | 0.0 | 0.9 | 0.01 | 0.01 | 0.01 | 86 | 1019.0 |
| 20260903094049 | 54 | 165 | 0.0 | 1.7 | 0.01 | 0.01 | 0.01 | 82 | 1019.1 |
| 20260903094038 | 54 | 166 | 0.0 | 1.7 | 0.00 | 0.00 | 0.00 | 83 | 1019.1 |
| 20260903093048 | 54 | 185 | 0.0 | 0.9 | 0.00 | 0.00 | 0.00 | 83 | 1019.1 |
| 20260903092552 | 54 | 128 | 0.0 | 0.9 | 0.00 | 0.00 | 0.00 | 84 | 1019.0 |
| 20260903092047 | 54 | 144 | 0.0 | 0.9 | 0.00 | 0.00 | 0.00 | 82 | 1019.0 |
| 20260903091546 | 55 | 343 | 0.0 | 0.0 | 0.00 | 0.00 | 0.00 | 83 | 1019.0 |
| 20260903091048 | 55 | 343 | 0.0 | 0.0 | 0.00 | 0.00 | 0.00 | 82 | 1018.9 |
| 20260903090547 | 55 | 343 | 0.0 | 0.0 | 0.00 | 0.00 | 0.00 | 81 | 1018.9 |
| 20260903090045 | 56 | 343 | 0.0 | 0.0 | 0.00 | 0.00 | 0.00 | 78 | 1018.9 |
| 20260903085808 | 56 | 343 | 0.0 | 1.7 | 0.00 | 0.00 | 0.00 | 78 | 1018.8 |
| 20260903085046 | 56 | 343 | 0.0 | 2.6 | 0.00 | 0.00 | 0.00 | 77 | 1018.8 |
| 20260903084547 | 56 | 341 | 1.7 | 2.6 | 0.00 | 0.00 | 0.00 | 77 | 1018.7 |